PBO Station Position Time Series. Reference Frame : NAM14
Format Version,1.1.0
4-character ID,CRO1
Station name,St._Croix_VLBA
Begin Date, 1996-01-01
End Date, 2019-10-07
Release Date, 2019-10-08
Reference position, 17.7568986907 North Latitude, -64.5843196831 East Longitude, -31.95465 meters elevation,
Date, North (mm), East (mm), Vertical (mm), North Std. Deviation (mm), East Std. Deviation (mm),              Vertical Std. Deviation (mm), Quality,
1996-01-01,0.00, 0.00, 0.00, 5.61, 5.87, 17.43, repro,
1996-01-02,2.25, 1.03, 15.47, 5.57, 5.49, 16.14, repro,
1996-01-03,1.23, 0.15, -3.94, 5.62, 5.51, 16.12, repro,
1996-01-04,3.17, -1.39, -11.19, 5.55, 5.30, 15.87, repro,
1996-01-05,4.59, 3.69, 18.12, 5.84, 5.70, 16.06, repro,
1996-01-06,3.57, 3.48, 8.75, 5.15, 5.19, 16.29, repro,
1996-01-07,1.63, 5.64, -8.71, 5.13, 5.31, 16.73, repro,
1996-01-08,2.36, 0.61, -0.15, 5.56, 5.31, 16.13, repro,
1996-01-09,0.55, 1.89, 20.98, 5.25, 5.47, 17.29, repro,
1996-01-10,-1.53, 0.07, 1.94, 5.47, 5.41, 17.07, repro,
1996-01-11,0.67, 4.84, 1.17, 5.56, 5.70, 16.68, repro,
1996-01-12,-1.42, -0.25, -2.35, 5.20, 5.45, 17.05, repro,
1996-01-13,-7.50, -0.85, -10.31, 4.97, 5.18, 16.32, repro,
1996-01-14,-4.32, 4.53, -14.84, 5.18, 6.06, 19.74, repro,
1996-01-15,-3.61, 5.38, -9.87, 4.68, 4.68, 15.24, repro,
1996-01-16,-1.59, 3.15, -19.08, 4.73, 5.11, 16.04, repro,
1996-01-17,5.63, -1.23, 5.20, 4.83, 5.11, 16.03, repro,
1996-01-18,-2.12, -5.89, -1.02, 4.10, 4.86, 17.03, repro,
1996-01-19,0.04, -5.37, 16.60, 4.36, 4.70, 16.29, repro,
1996-01-20,-6.37, 6.28, -10.22, 4.61, 5.20, 16.66, repro,
1996-01-21,0.60, -3.40, 3.65, 4.01, 4.58, 14.71, repro,
1996-01-22,-2.82, -1.87, 8.05, 4.35, 4.61, 15.53, repro,
1996-01-23,-2.39, 3.90, 5.52, 4.51, 4.63, 15.42, repro,
1996-01-24,-4.29, 0.77, -15.03, 4.50, 4.56, 14.43, repro,
1996-01-25,0.07, -1.74, 15.21, 4.32, 5.49, 18.52, repro,
1996-01-26,-3.22, -3.00, 16.53, 4.60, 5.40, 15.90, repro,
1996-01-27,-3.13, 1.38, 11.44, 4.02, 4.44, 14.62, repro,
1996-01-28,-7.62, 4.65, -28.40, 5.32, 6.65, 20.41, repro,
1996-01-29,1.08, -6.70, 18.52, 4.67, 5.43, 20.11, repro,
1996-01-30,-0.73, 6.18, -6.24, 4.78, 5.60, 18.02, repro,
1996-01-31,-0.82, -0.11, 8.30, 3.61, 3.75, 11.79, repro,
1996-02-01,0.77, -0.90, 4.49, 3.59, 3.72, 11.87, repro,
1996-02-02,-0.15, -2.64, 5.75, 3.58, 3.80, 11.87, repro,
1996-02-03,0.56, 1.35, 14.67, 3.57, 3.71, 11.47, repro,
1996-02-04,3.43, -2.90, 0.17, 4.30, 4.42, 14.50, repro,
1996-02-05,0.45, -1.70, 23.02, 3.52, 3.62, 11.62, repro,
1996-02-06,2.30, -4.02, 17.45, 3.54, 3.77, 12.53, repro,
1996-02-07,1.72, -0.10, 3.85, 3.98, 4.09, 12.90, repro,
1996-02-08,3.20, -6.49, 9.53, 3.56, 3.84, 12.44, repro,
1996-02-09,-3.43, -1.73, 11.61, 4.56, 5.88, 21.08, repro,
1996-02-10,2.71, -4.27, 11.38, 3.59, 3.93, 12.77, repro,
1996-02-11,-1.24, -8.76, 18.59, 4.13, 4.32, 13.65, repro,
1996-02-12,-3.44, -0.53, -10.35, 4.94, 5.63, 20.25, repro,
1996-02-13,3.02, -3.73, 7.60, 5.04, 5.23, 15.25, repro,
1996-02-14,1.44, -2.32, 4.41, 4.91, 5.26, 16.56, repro,
1996-02-15,4.08, -3.43, 5.57, 4.28, 4.69, 15.43, repro,
1996-02-16,3.44, -5.87, 16.64, 4.64, 5.10, 16.62, repro,
1996-02-17,-1.21, -5.04, -6.93, 4.60, 5.81, 21.34, repro,
1996-02-18,3.29, 1.26, 16.20, 5.08, 6.05, 20.70, repro,
1996-02-19,1.03, -0.68, 12.31, 5.07, 6.33, 24.13, repro,
1996-02-20,0.06, 0.97, 14.99, 4.97, 5.63, 19.26, repro,
1996-02-21,4.09, -4.15, 7.40, 4.41, 4.66, 15.48, repro,
1996-02-22,-1.66, 4.25, -0.58, 5.01, 5.62, 20.93, repro,
1996-02-23,5.03, -4.62, 17.45, 4.17, 4.45, 15.36, repro,
1996-02-24,4.19, -5.09, 11.93, 4.32, 4.69, 16.43, repro,
1996-02-25,2.52, -3.52, 5.65, 4.71, 5.15, 16.82, repro,
1996-02-26,1.41, 3.27, 4.83, 4.60, 4.79, 18.90, repro,
1996-02-27,4.13, -1.41, 4.39, 4.41, 4.88, 15.53, repro,
1996-02-28,5.17, -2.76, 10.64, 4.34, 4.75, 15.68, repro,
1996-02-29,2.66, -2.08, 7.94, 4.06, 4.44, 14.38, repro,
1996-03-01,1.24, -6.33, 3.40, 4.19, 4.30, 14.92, repro,
1996-03-02,1.72, -5.47, 12.34, 4.83, 5.38, 21.39, repro,
1996-03-03,7.28, -3.45, 23.20, 4.41, 5.17, 17.39, repro,
1996-03-04,0.72, 0.93, -6.39, 4.42, 5.08, 15.95, repro,
1996-03-05,1.02, -0.56, -2.23, 4.22, 4.52, 15.47, repro,
1996-03-06,-1.47, 4.50, -2.94, 4.17, 4.20, 15.30, repro,
1996-03-07,0.38, 1.96, 9.67, 4.07, 4.44, 15.80, repro,
1996-03-08,-0.64, 1.80, -20.87, 4.14, 4.81, 16.46, repro,
1996-03-09,5.34, 3.17, 11.62, 4.81, 5.24, 18.66, repro,
1996-03-10,1.51, 2.37, -2.38, 5.56, 6.60, 22.58, repro,
1996-03-11,3.88, 6.09, -12.21, 4.53, 4.67, 15.25, repro,
1996-03-12,0.49, -5.06, 12.05, 4.01, 4.34, 14.41, repro,
1996-03-13,-2.02, -5.09, -2.96, 4.33, 4.65, 14.37, repro,
1996-03-14,-3.57, 1.94, 2.43, 4.02, 4.32, 14.39, repro,
1996-03-15,2.72, -4.79, 28.65, 4.27, 4.57, 15.24, repro,
1996-03-16,-2.03, 0.24, -0.71, 4.13, 4.64, 16.99, repro,
1996-03-17,1.70, 0.83, 10.78, 4.67, 5.27, 17.25, repro,
1996-03-18,0.18, 1.40, 5.00, 4.92, 4.99, 15.26, repro,
1996-03-19,1.33, -4.45, 5.60, 4.82, 5.30, 20.23, repro,
1996-03-20,-3.69, -0.33, -4.82, 4.64, 5.16, 17.03, repro,
1996-03-21,-0.89, -12.65, 30.41, 5.11, 7.26, 25.88, repro,
1996-03-22,2.20, 1.84, 11.99, 4.18, 4.70, 16.36, repro,
1996-03-23,-4.23, -5.47, 13.99, 4.05, 4.42, 14.08, repro,
1996-03-24,-4.55, 6.32, -5.49, 5.32, 7.24, 25.47, repro,
1996-03-25,4.09, 1.26, 6.78, 4.57, 4.99, 15.79, repro,
1996-03-26,-3.16, 2.71, 8.31, 4.85, 5.23, 20.12, repro,
1996-03-27,-0.13, 1.06, 4.70, 3.79, 3.90, 12.33, repro,
1996-03-28,0.70, 0.99, 8.22, 3.66, 3.88, 12.35, repro,
1996-03-29,-3.25, -0.64, 1.02, 3.81, 4.17, 14.99, repro,
1996-03-30,-0.49, -5.23, 27.53, 3.83, 4.08, 13.42, repro,
1996-03-31,0.06, -3.44, 9.83, 3.83, 3.98, 12.80, repro,
1996-04-01,-2.79, -4.63, 12.15, 4.15, 4.41, 13.87, repro,
1996-04-02,0.15, -4.13, 8.33, 4.63, 4.67, 13.84, repro,
1996-04-03,1.02, -3.70, 3.42, 3.53, 3.76, 12.72, repro,
1996-04-04,-0.41, -5.74, 6.77, 3.69, 3.82, 13.32, repro,
1996-04-05,-2.33, -4.59, 1.96, 4.15, 4.73, 18.11, repro,
1996-04-06,0.65, -3.06, 13.54, 3.79, 3.96, 12.65, repro,
1996-04-07,3.10, -5.93, 19.20, 4.03, 4.24, 14.42, repro,
1996-04-08,3.54, -6.03, 22.83, 4.15, 4.49, 14.77, repro,
1996-04-09,0.10, -4.59, -5.13, 3.72, 3.89, 12.79, repro,
1996-04-10,1.96, -5.53, 11.75, 4.70, 4.68, 20.67, repro,
1996-04-11,0.39, -2.98, 11.55, 3.94, 4.34, 15.17, repro,
1996-04-12,-1.77, -5.98, 14.70, 4.14, 4.72, 16.57, repro,
1996-04-13,-0.77, -4.56, 14.82, 4.15, 4.82, 16.86, repro,
1996-04-14,-1.13, -7.50, 15.79, 4.02, 4.32, 16.30, repro,
1996-04-15,-0.03, -5.38, 0.16, 4.02, 4.21, 14.18, repro,
1996-04-16,2.17, 1.92, 13.86, 5.01, 5.36, 21.80, repro,
1996-04-17,0.60, -3.81, 15.03, 4.12, 4.37, 14.17, repro,
1996-04-18,-2.50, -5.94, 52.95, 4.90, 5.06, 19.74, repro,
1996-04-19,2.31, -3.90, 10.21, 3.79, 4.02, 13.73, repro,
1996-04-20,-7.93, -5.22, 42.95, 4.80, 5.22, 22.19, repro,
1996-04-21,3.07, -3.91, 13.33, 3.93, 4.33, 15.00, repro,
1996-04-22,5.57, -6.11, 31.09, 3.89, 4.11, 14.17, repro,
1996-04-23,2.79, -3.49, 0.88, 4.11, 4.53, 14.80, repro,
1996-04-24,4.59, -1.81, 9.30, 4.30, 4.44, 18.19, repro,
1996-04-25,0.49, -5.29, 4.28, 4.62, 4.82, 18.99, repro,
1996-04-26,0.58, -1.43, 6.57, 3.82, 4.09, 14.02, repro,
1996-04-27,3.20, -3.78, 4.67, 3.85, 4.07, 13.19, repro,
1996-04-28,5.56, -1.11, 10.13, 3.82, 4.00, 12.70, repro,
1996-04-29,2.89, -4.60, 25.96, 4.47, 5.09, 16.88, repro,
1996-04-30,0.63, 0.10, -3.75, 3.66, 3.87, 13.04, repro,
1996-05-01,3.17, -4.31, 6.95, 4.24, 4.85, 16.50, repro,
1996-05-02,3.65, 1.11, 11.26, 3.92, 4.11, 13.58, repro,
1996-05-03,4.25, -2.15, 38.60, 4.09, 4.57, 15.89, repro,
1996-05-04,2.85, 1.64, -2.97, 3.96, 4.13, 13.20, repro,
1996-05-05,0.90, -2.03, 19.35, 4.47, 4.74, 18.79, repro,
1996-05-06,2.41, -1.92, 12.43, 3.60, 3.83, 12.60, repro,
1996-05-07,11.24, -10.14, 33.54, 4.45, 5.06, 17.47, repro,
1996-05-08,5.20, -2.10, 8.27, 3.97, 4.09, 12.99, repro,
1996-05-09,5.90, -0.13, 14.18, 4.03, 4.05, 13.21, repro,
1996-05-10,-0.17, -1.63, 27.58, 4.36, 4.45, 14.35, repro,
1996-05-11,-4.79, -1.82, 20.01, 4.16, 4.46, 13.88, repro,
1996-05-12,6.27, -0.06, 30.57, 4.26, 4.54, 14.74, repro,
1996-05-13,3.65, -0.98, 11.03, 3.99, 4.05, 12.75, repro,
1996-05-14,3.11, -6.15, 35.04, 4.68, 4.75, 17.76, repro,
1996-05-15,3.55, -3.64, 16.94, 3.97, 4.11, 12.77, repro,
1996-05-16,5.43, 2.33, 10.14, 4.37, 4.78, 16.57, repro,
1996-05-17,-0.40, -0.53, 16.15, 4.48, 4.58, 15.69, repro,
1996-05-18,2.85, -3.65, 20.55, 4.23, 4.21, 13.20, repro,
1996-05-19,7.46, -2.47, 37.07, 5.14, 5.12, 18.81, repro,
1996-05-20,2.88, -2.29, 6.46, 4.15, 4.22, 13.33, repro,
1996-05-21,1.46, 0.78, 28.15, 4.76, 4.85, 18.10, repro,
1996-05-22,0.24, 2.32, 20.58, 4.55, 4.92, 17.21, repro,
1996-05-23,-1.00, 5.64, 18.59, 4.28, 5.01, 14.92, repro,
1996-05-24,1.45, 1.43, 11.70, 4.07, 4.25, 13.26, repro,
1996-05-25,3.61, -4.36, 10.93, 4.21, 4.35, 12.65, repro,
1996-05-26,2.37, -0.29, 7.29, 4.22, 4.53, 13.26, repro,
1996-05-27,1.32, -0.72, 13.39, 4.70, 4.92, 14.19, repro,
1996-05-28,-0.51, 0.53, 9.92, 4.08, 4.25, 13.23, repro,
1996-05-29,-0.66, -5.85, 25.68, 4.32, 4.93, 15.13, repro,
1996-05-30,2.34, -2.33, 1.04, 4.02, 4.22, 13.09, repro,
1996-05-31,1.81, -0.20, 14.16, 4.36, 4.79, 15.74, repro,
1996-06-01,-0.33, -1.14, 12.13, 4.09, 4.16, 12.95, repro,
1996-06-02,0.34, -2.34, 5.19, 4.08, 4.22, 13.43, repro,
1996-06-03,-3.01, 1.67, 0.19, 4.75, 4.71, 18.48, repro,
1996-06-04,-2.19, -1.90, 12.62, 4.26, 4.37, 13.49, repro,
1996-06-05,-1.63, -0.71, 1.43, 5.61, 5.53, 19.87, repro,
1996-06-06,1.62, 2.93, 6.65, 4.31, 4.42, 15.36, repro,
1996-06-07,-1.03, 2.00, 12.71, 4.69, 5.08, 14.93, repro,
1996-06-08,-7.74, -7.17, 4.21, 4.74, 4.89, 14.72, repro,
1996-06-09,-1.60, -4.58, 5.47, 4.45, 4.70, 14.17, repro,
1996-06-10,2.39, -8.14, 50.39, 5.05, 4.91, 19.46, repro,
1996-06-11,1.65, -6.33, 9.15, 4.93, 4.75, 17.38, repro,
1996-06-12,2.10, 1.31, 1.01, 4.61, 4.60, 14.96, repro,
1996-06-13,-4.44, -1.78, 17.02, 4.66, 4.54, 16.97, repro,
1996-06-14,-4.34, 2.46, 10.81, 4.77, 5.01, 19.57, repro,
1996-06-15,-1.80, -9.26, -7.60, 4.56, 4.75, 17.76, repro,
1996-06-16,-0.56, -4.44, 19.58, 4.14, 4.22, 13.65, repro,
1996-06-17,-4.51, -2.17, 0.71, 4.70, 5.07, 19.04, repro,
1996-06-18,-1.04, -1.38, 1.64, 4.52, 4.94, 15.99, repro,
1996-06-19,0.88, -0.79, 23.48, 4.12, 4.36, 14.24, repro,
1996-06-20,0.87, -2.53, 9.64, 4.53, 4.88, 18.11, repro,
1996-06-21,1.30, -3.73, 35.14, 4.48, 4.85, 17.41, repro,
1996-06-22,-4.04, 1.14, 14.90, 3.50, 4.15, 14.70, repro,
1996-06-23,-1.69, -1.15, 8.43, 4.09, 4.49, 14.73, repro,
1996-06-24,0.95, -4.02, 15.33, 4.29, 4.56, 15.63, repro,
1996-06-25,-0.61, -0.34, 11.21, 4.52, 4.91, 16.34, repro,
1996-06-26,0.13, -6.57, 8.60, 4.51, 4.91, 16.19, repro,
1996-06-27,3.19, -6.05, 13.40, 4.45, 4.98, 16.62, repro,
1996-06-28,3.54, -0.24, 7.56, 4.49, 4.94, 18.41, repro,
1996-06-29,2.54, -4.82, 15.56, 4.10, 4.33, 13.53, repro,
1996-06-30,3.64, -2.38, 10.27, 4.37, 5.10, 16.88, repro,
1996-07-01,2.21, -3.63, 14.96, 4.24, 4.45, 15.23, repro,
1996-07-02,2.16, -2.50, 28.70, 4.71, 5.33, 17.92, repro,
1996-07-03,-2.28, -1.17, 17.40, 4.59, 4.97, 16.82, repro,
1996-07-04,-0.91, -2.93, 13.53, 4.09, 4.49, 14.09, repro,
1996-07-05,0.62, -2.82, 11.16, 4.02, 4.25, 13.27, repro,
1996-07-06,1.66, -2.55, 21.22, 4.31, 4.63, 15.87, repro,
1996-07-07,0.88, -0.99, 6.54, 4.18, 4.49, 14.37, repro,
1996-07-08,-1.41, -7.28, 34.86, 4.20, 4.29, 13.65, repro,
1996-07-09,3.87, -7.81, 18.09, 4.16, 4.31, 14.99, repro,
1996-07-10,4.09, 0.14, 10.23, 4.07, 4.51, 14.64, repro,
1996-07-11,-1.39, 1.57, -1.64, 4.04, 4.19, 14.21, repro,
1996-07-12,-1.60, -2.87, 17.56, 4.13, 4.25, 13.58, repro,
1996-07-13,1.66, -1.11, 27.27, 4.10, 4.23, 13.22, repro,
1996-07-14,1.85, -0.68, -1.55, 4.40, 4.63, 14.49, repro,
1996-07-15,-0.15, -0.96, 1.24, 3.97, 4.24, 12.84, repro,
1996-07-16,0.55, 2.65, -7.63, 3.91, 4.23, 12.81, repro,
1996-07-17,0.68, -2.38, -0.04, 4.20, 4.47, 13.30, repro,
1996-07-18,-3.15, 1.81, -0.05, 3.87, 4.12, 13.31, repro,
1996-07-19,2.14, -2.02, 14.38, 3.89, 4.07, 13.31, repro,
1996-07-20,3.24, -4.56, 20.05, 4.02, 4.74, 15.65, repro,
1996-07-21,1.55, -3.67, -1.42, 3.95, 4.09, 13.23, repro,
1996-07-22,-2.27, -2.68, 0.23, 3.94, 4.04, 14.23, repro,
1996-07-23,-1.28, 1.16, -0.52, 3.24, 3.79, 13.62, repro,
1996-07-24,-3.52, -0.82, 7.16, 3.34, 3.71, 13.39, repro,
1996-07-25,-2.88, 2.90, -2.91, 3.50, 4.10, 14.28, repro,
1996-07-26,-2.62, -0.38, -1.83, 3.38, 3.89, 13.56, repro,
1996-07-27,0.69, 2.00, -2.48, 3.33, 3.98, 13.61, repro,
1996-07-28,-3.19, 3.45, -0.65, 3.27, 3.64, 12.71, repro,
1996-07-29,-3.62, 1.96, -4.75, 3.34, 3.75, 13.47, repro,
1996-07-30,-2.72, -0.74, -10.13, 3.34, 3.91, 14.23, repro,
1996-07-31,-1.02, -1.97, -5.74, 3.42, 3.78, 13.11, repro,
1996-08-01,-4.28, -4.02, 1.30, 3.73, 4.23, 15.67, repro,
1996-08-02,1.53, -1.76, 2.80, 3.17, 3.55, 12.91, repro,
1996-08-03,-0.41, -1.89, 6.81, 3.40, 3.99, 14.85, repro,
1996-08-04,1.00, -2.00, 17.01, 3.19, 3.57, 12.76, repro,
1996-08-05,-3.09, -2.32, -13.45, 3.95, 4.32, 18.14, repro,
1996-08-06,1.35, -3.78, -1.52, 3.31, 3.61, 13.77, repro,
1996-08-07,-0.26, -2.86, -7.26, 3.51, 4.00, 14.89, repro,
1996-08-08,-2.87, 0.46, -3.68, 3.56, 4.26, 15.36, repro,
1996-08-09,1.71, -1.73, 11.10, 3.97, 4.30, 16.02, repro,
1996-08-10,-0.11, 1.08, 15.72, 4.38, 4.67, 18.81, repro,
1996-08-11,4.15, -1.88, 5.62, 3.90, 4.17, 14.92, repro,
1996-08-12,1.82, 0.13, 6.43, 4.02, 4.27, 15.53, repro,
1996-08-13,0.16, -1.04, 16.20, 3.87, 4.01, 15.02, repro,
1996-08-14,-0.89, -0.15, 9.48, 3.80, 4.00, 14.48, repro,
1996-08-15,-5.42, -0.65, 33.96, 5.43, 5.64, 24.44, repro,
1996-08-16,2.82, 1.79, 5.89, 4.36, 4.77, 16.80, repro,
1996-08-17,2.38, -2.82, 3.65, 4.20, 4.42, 15.27, repro,
1996-08-18,3.04, -7.27, 12.72, 4.21, 4.47, 14.60, repro,
1996-08-19,2.98, 2.21, -1.73, 4.38, 5.01, 17.41, repro,
1996-08-20,4.10, -6.61, 12.18, 4.38, 5.22, 20.82, repro,
1996-08-21,1.73, -3.34, -10.83, 4.13, 4.60, 18.65, repro,
1996-08-22,1.69, -7.90, 8.07, 4.30, 4.63, 17.85, repro,
1996-08-23,1.04, -4.35, 9.13, 3.72, 3.96, 14.10, repro,
1996-08-24,1.54, -1.02, 11.85, 3.90, 4.27, 15.82, repro,
1996-08-25,1.08, -0.64, 8.50, 3.94, 4.25, 15.73, repro,
1996-08-26,-0.69, -0.58, 8.60, 4.12, 4.59, 16.52, repro,
1996-08-27,2.90, -1.34, -13.70, 4.62, 5.06, 18.58, repro,
1996-08-28,-2.60, 3.22, -2.83, 4.17, 4.85, 17.03, repro,
1996-08-29,7.73, -0.84, 11.29, 4.17, 4.60, 16.15, repro,
1996-08-30,7.04, 1.06, 9.50, 4.54, 5.41, 19.17, repro,
1996-08-31,3.23, -4.90, 22.82, 4.02, 4.58, 16.51, repro,
1996-09-01,4.82, -4.77, 10.75, 4.45, 5.20, 21.47, repro,
1996-09-04,3.82, -9.83, 25.71, 6.18, 7.41, 29.12, repro,
1996-09-05,3.58, -6.73, -0.34, 3.88, 4.09, 15.02, repro,
1996-09-06,2.50, -8.18, 25.12, 3.82, 4.23, 15.24, repro,
1996-09-07,-3.42, -4.94, 17.71, 4.08, 4.68, 17.16, repro,
1996-09-08,-1.74, -0.41, -3.59, 3.69, 4.17, 14.82, repro,
1996-09-09,0.91, -5.27, 13.64, 3.80, 4.12, 14.10, repro,
1996-09-10,0.75, -4.33, -0.35, 3.88, 4.32, 14.50, repro,
1996-09-11,-0.02, -4.56, -8.51, 3.93, 4.10, 14.33, repro,
1996-09-12,-4.51, -7.91, 15.83, 4.56, 5.03, 16.46, repro,
1996-09-13,-2.19, -9.23, 26.98, 3.99, 4.46, 16.22, repro,
1996-09-14,-4.61, -4.12, -2.15, 3.36, 3.91, 15.00, repro,
1996-09-15,-3.28, -5.35, -2.73, 3.80, 4.13, 14.83, repro,
1996-09-16,0.89, -4.42, 20.20, 4.43, 4.81, 16.94, repro,
1996-09-17,-2.85, -6.25, -7.66, 4.02, 4.44, 14.90, repro,
1996-09-18,0.61, -4.26, 2.19, 3.70, 3.84, 13.51, repro,
1996-09-19,-7.49, -4.75, -18.67, 3.46, 3.88, 14.17, repro,
1996-09-20,3.82, -3.57, 6.81, 3.69, 3.96, 14.19, repro,
1996-09-21,1.08, -2.51, 12.07, 3.43, 3.74, 15.27, repro,
1996-09-22,2.41, -3.36, 15.89, 3.87, 4.38, 14.77, repro,
1996-09-23,0.46, -6.31, 0.10, 3.82, 4.31, 14.41, repro,
1996-09-24,-4.61, -1.53, -7.28, 4.12, 5.05, 17.39, repro,
1996-09-25,-3.52, 2.07, 12.77, 3.12, 3.68, 12.74, repro,
1996-09-26,-7.95, -3.53, -3.94, 3.21, 3.79, 12.85, repro,
1996-09-27,-1.03, -4.28, -1.19, 3.28, 3.87, 13.81, repro,
1996-09-28,-3.73, 1.13, -2.44, 3.36, 3.93, 14.10, repro,
1996-09-29,0.14, 1.55, 1.23, 3.90, 4.37, 14.56, repro,
1996-09-30,-2.04, -3.85, -8.31, 3.70, 4.21, 13.16, repro,
1996-10-01,-2.08, -1.64, 4.61, 3.69, 4.01, 13.07, repro,
1996-10-02,-0.92, -1.74, 15.21, 3.72, 4.06, 13.12, repro,
1996-10-03,-0.36, -3.93, 6.47, 4.06, 4.55, 17.18, repro,
1996-10-04,1.23, -0.40, -3.86, 3.81, 4.01, 12.95, repro,
1996-10-05,-4.30, -1.76, 5.27, 3.67, 4.21, 13.11, repro,
1996-10-06,-5.25, -3.28, 1.05, 3.84, 4.07, 12.92, repro,
1996-10-07,1.81, -4.58, 4.45, 3.77, 4.07, 13.28, repro,
1996-10-08,-1.30, -3.69, 9.83, 3.72, 4.23, 14.01, repro,
1996-10-09,2.38, -4.72, 11.06, 3.91, 4.32, 14.80, repro,
1996-10-10,-1.19, -3.70, 12.57, 3.65, 4.11, 13.35, repro,
1996-10-11,1.02, -5.67, 0.84, 3.60, 3.90, 12.81, repro,
1996-10-12,-0.41, -0.21, -2.79, 3.58, 3.90, 12.52, repro,
1996-10-13,5.68, -11.17, -4.55, 3.88, 4.27, 14.35, repro,
1996-10-14,1.05, -5.84, 1.70, 4.08, 4.44, 16.41, repro,
1996-10-15,2.06, 0.87, 0.16, 4.07, 4.51, 14.72, repro,
1996-10-16,-2.12, -2.66, 9.89, 3.67, 4.05, 14.78, repro,
1996-10-17,0.03, -5.90, -13.41, 3.73, 4.09, 13.26, repro,
1996-10-18,-3.72, -2.72, -3.48, 3.20, 3.62, 13.82, repro,
1996-10-19,7.59, -10.44, 9.26, 3.02, 3.44, 11.61, repro,
1996-10-20,0.30, -4.37, 13.86, 3.93, 5.24, 19.76, repro,
1996-10-21,0.02, -7.00, 4.19, 3.49, 3.95, 12.76, repro,
1996-10-22,0.81, -3.57, -2.02, 4.11, 4.71, 17.41, repro,
1996-10-23,0.23, 0.03, 5.63, 3.73, 4.01, 15.44, repro,
1996-10-24,-2.19, -3.36, 7.75, 3.18, 3.72, 14.08, repro,
1996-10-25,2.92, -2.63, -6.29, 4.58, 5.28, 20.86, repro,
1996-10-26,-2.84, -2.34, -2.22, 3.88, 4.31, 16.61, repro,
1996-10-27,2.69, -5.14, 7.36, 3.44, 3.85, 12.63, repro,
1996-10-28,-1.70, 2.08, -1.04, 3.92, 4.51, 14.13, repro,
1996-10-29,-0.17, 4.00, 4.91, 3.30, 3.90, 14.10, repro,
1996-10-30,-6.82, 3.96, -12.00, 2.98, 3.42, 12.27, repro,
1996-10-31,-2.32, -3.31, -10.05, 4.32, 4.86, 17.92, repro,
1996-11-01,2.08, -3.20, 0.39, 4.13, 4.77, 17.40, repro,
1996-11-02,4.42, 5.61, 20.78, 3.50, 3.96, 13.59, repro,
1996-11-03,-0.15, -1.23, 30.68, 5.30, 6.99, 31.22, repro,
1996-11-04,-0.87, -0.55, -3.19, 3.96, 4.49, 13.95, repro,
1996-11-05,0.36, -5.11, 10.54, 4.25, 5.56, 18.88, repro,
1996-11-06,2.52, -1.62, -4.33, 3.91, 4.37, 13.62, repro,
1996-11-07,-2.66, 1.42, -0.82, 3.81, 4.25, 15.19, repro,
1996-11-08,2.93, 4.90, -24.28, 3.07, 3.49, 13.08, repro,
1996-11-09,6.72, -8.70, 3.06, 3.88, 4.36, 14.97, repro,
1996-11-10,6.13, -5.35, 3.50, 3.60, 4.09, 13.42, repro,
1996-11-11,1.82, -0.58, 4.89, 3.35, 3.72, 14.50, repro,
1996-11-12,6.65, -0.86, 2.87, 3.96, 4.29, 14.24, repro,
1996-11-13,3.24, -5.66, 17.47, 3.76, 4.14, 14.66, repro,
1996-11-14,0.23, -3.46, 10.25, 3.95, 4.57, 16.06, repro,
1996-11-15,2.72, -7.43, 1.55, 3.77, 4.44, 16.44, repro,
1996-11-16,-2.41, -6.55, -0.68, 3.88, 5.09, 19.27, repro,
1996-11-17,0.65, -0.82, 9.05, 3.76, 4.24, 14.65, repro,
1996-11-18,-2.04, -3.74, -2.01, 3.67, 3.90, 13.54, repro,
1996-11-19,-2.04, 3.22, -1.37, 3.88, 4.40, 15.09, repro,
1996-11-20,3.86, 0.09, -15.20, 3.65, 3.94, 12.92, repro,
1996-11-21,-3.65, -7.47, -5.81, 3.39, 3.81, 12.46, repro,
1996-11-22,-1.20, -0.91, -8.07, 3.60, 4.08, 14.55, repro,
1996-11-23,-1.56, -4.78, -10.32, 3.39, 4.14, 14.68, repro,
1996-11-24,2.23, -3.05, -1.94, 3.58, 4.09, 13.48, repro,
1996-11-25,1.45, -5.62, -3.02, 3.48, 4.07, 13.80, repro,
1996-11-26,-1.36, -2.80, 0.10, 3.37, 3.83, 12.47, repro,
1996-11-27,2.57, -2.82, 5.37, 4.09, 4.63, 17.26, repro,
1996-11-28,5.55, -8.20, -30.74, 3.75, 4.46, 17.20, repro,
1996-11-29,3.59, -2.85, -0.39, 3.84, 4.75, 16.10, repro,
1996-11-30,-3.85, -4.27, 11.81, 3.54, 4.02, 14.83, repro,
1996-12-01,2.10, -5.83, 9.97, 3.56, 3.86, 13.12, repro,
1996-12-02,3.44, -9.68, -10.16, 3.85, 4.49, 14.89, repro,
1996-12-03,4.92, -4.77, 6.83, 3.61, 4.02, 13.04, repro,
1996-12-05,3.42, -15.16, 2.94, 4.27, 4.66, 15.96, repro,
1996-12-06,-0.88, 2.20, -14.71, 3.69, 4.32, 14.27, repro,
1996-12-07,4.84, -3.77, 1.30, 3.65, 4.06, 13.35, repro,
1996-12-08,6.23, -2.56, 9.90, 3.70, 4.10, 13.41, repro,
1996-12-09,7.17, -8.31, 7.27, 3.85, 4.33, 13.88, repro,
1996-12-10,1.91, 0.45, -2.60, 3.60, 3.91, 12.41, repro,
1996-12-11,3.84, -7.84, -12.19, 3.58, 3.77, 12.88, repro,
1996-12-12,-0.97, -2.14, -25.08, 3.71, 3.92, 13.64, repro,
1996-12-13,3.37, -7.38, 3.22, 3.65, 3.85, 13.09, repro,
1996-12-14,-0.08, -7.48, -5.66, 3.58, 3.80, 13.10, repro,
1996-12-15,-1.71, 1.16, 8.90, 3.60, 3.86, 13.15, repro,
1996-12-16,-0.42, -1.45, -4.91, 3.25, 3.43, 11.91, repro,
1996-12-17,-0.26, -1.90, -2.87, 4.11, 4.56, 15.25, repro,
1996-12-18,0.16, 1.84, 3.10, 3.84, 3.90, 14.88, repro,
1996-12-19,1.67, -1.33, 1.08, 3.68, 3.86, 13.25, repro,
1996-12-20,5.49, -4.51, 8.83, 4.04, 4.27, 15.14, repro,
1996-12-21,3.65, -3.20, 3.58, 3.74, 3.91, 13.11, repro,
1996-12-22,0.68, -2.60, -1.26, 3.79, 3.84, 12.88, repro,
1996-12-23,3.86, -3.80, -17.10, 3.60, 3.80, 12.41, repro,
1996-12-24,2.41, -4.76, -20.61, 3.66, 3.92, 13.45, repro,
1996-12-25,-2.53, -4.81, -12.60, 4.16, 4.46, 14.35, repro,
1996-12-26,3.61, -3.53, 10.82, 3.60, 3.79, 11.76, repro,
1996-12-27,0.40, -2.86, -8.79, 3.81, 4.03, 13.07, repro,
1996-12-28,3.76, -0.82, 7.44, 3.70, 3.89, 13.37, repro,
1996-12-29,5.25, -2.67, 12.76, 3.52, 3.70, 12.54, repro,
1996-12-30,7.63, -6.92, 0.29, 3.71, 3.96, 13.36, repro,
1996-12-31,-1.40, -3.84, 6.16, 4.01, 4.43, 15.34, repro,
1997-01-01,-1.99, -3.08, -2.42, 3.99, 4.50, 15.93, repro,
1997-01-02,1.68, -5.93, -2.99, 3.60, 4.04, 13.61, repro,
1997-01-03,-2.61, -5.94, -3.86, 3.66, 4.04, 13.28, repro,
1997-01-04,0.74, -3.95, 2.89, 3.72, 3.99, 13.98, repro,
1997-01-05,-0.99, -3.31, 1.96, 3.51, 3.87, 13.36, repro,
1997-01-06,-0.28, -4.57, 0.91, 3.74, 4.12, 13.23, repro,
1997-01-07,-5.89, -1.23, -17.49, 3.51, 4.05, 13.71, repro,
1997-01-08,-6.40, 2.40, -10.99, 3.23, 3.68, 13.32, repro,
1997-01-09,-6.16, -4.22, -3.41, 3.51, 3.75, 13.58, repro,
1997-01-10,-5.45, -0.73, 11.95, 3.37, 4.11, 15.51, repro,
1997-01-11,-3.82, 5.14, 20.34, 3.54, 4.32, 15.64, repro,
1997-01-12,-4.93, 0.20, 1.73, 3.20, 3.57, 13.11, repro,
1997-01-13,-5.31, 1.94, -5.03, 3.06, 3.25, 12.00, repro,
1997-01-14,-4.18, -3.14, -1.39, 3.17, 3.67, 13.10, repro,
1997-01-15,-6.28, 1.14, 2.00, 3.53, 4.00, 14.31, repro,
1997-01-16,-3.12, 0.44, 1.14, 3.44, 4.06, 13.62, repro,
1997-01-17,2.95, 6.14, 8.44, 3.22, 3.70, 12.61, repro,
1997-01-18,-1.13, 0.72, -2.13, 3.39, 3.84, 13.50, repro,
1997-01-19,-2.00, -1.80, -11.04, 3.39, 3.68, 12.03, repro,
1997-01-20,-7.83, 0.36, -13.31, 3.19, 3.47, 12.49, repro,
1997-01-21,-4.95, -1.71, -7.57, 3.68, 4.21, 15.42, repro,
1997-01-22,-4.38, 0.09, -4.39, 3.60, 3.98, 13.93, repro,
1997-01-23,-4.83, -3.76, -5.51, 3.12, 3.51, 12.03, repro,
1997-01-24,-1.24, -3.58, -0.23, 3.52, 3.73, 12.05, repro,
1997-01-25,-8.43, -5.45, -19.40, 3.56, 4.08, 13.51, repro,
1997-01-26,-6.67, -1.87, -0.83, 3.55, 3.95, 14.36, repro,
1997-01-27,-0.40, -3.33, -8.54, 3.97, 4.25, 13.92, repro,
1997-01-28,-1.30, -5.52, -0.32, 3.13, 3.47, 12.23, repro,
1997-01-29,-2.75, 1.01, -13.24, 3.29, 3.70, 12.82, repro,
1997-01-30,-4.57, -11.72, 1.56, 3.35, 3.66, 12.59, repro,
1997-01-31,-3.16, -2.49, 9.82, 3.33, 3.53, 12.67, repro,
1997-02-01,1.54, -3.00, 9.57, 2.98, 3.26, 11.54, repro,
1997-02-24,0.18, -2.54, 2.12, 3.93, 4.04, 14.65, repro,
1997-02-25,1.97, -0.94, -15.65, 3.40, 3.87, 15.91, repro,
1997-02-26,1.52, 5.07, 20.68, 3.27, 3.89, 15.49, repro,
1997-02-27,0.98, -2.93, 2.31, 3.81, 4.20, 16.35, repro,
1997-02-28,-3.09, 4.70, -8.84, 3.14, 3.70, 14.91, repro,
1997-03-01,-1.16, 2.47, 19.60, 4.32, 5.05, 19.91, repro,
1997-03-02,-0.77, 4.38, 4.64, 3.12, 3.70, 14.78, repro,
1997-03-03,-4.81, -2.19, -2.15, 3.31, 3.74, 13.70, repro,
1997-03-04,-2.99, 9.65, -3.79, 3.33, 3.76, 14.33, repro,
1997-03-05,-1.77, 0.41, -20.58, 3.42, 3.95, 14.48, repro,
1997-03-06,-4.58, -3.42, 5.33, 3.43, 3.57, 13.52, repro,
1997-03-07,-3.77, -0.27, 4.01, 3.38, 3.75, 14.48, repro,
1997-03-08,-0.47, -3.81, -4.13, 4.01, 4.35, 15.24, repro,
1997-03-09,-2.26, -9.15, 3.17, 3.81, 4.15, 14.29, repro,
1997-03-10,-3.55, -3.87, -4.80, 4.05, 4.29, 15.52, repro,
1997-03-11,-11.22, -0.71, -1.02, 3.53, 3.91, 15.00, repro,
1997-03-12,-9.27, 2.32, -2.39, 3.32, 3.72, 14.17, repro,
1997-03-13,-5.14, -0.42, 19.17, 3.54, 4.22, 15.56, repro,